Location: Street
(51.1247°N, 2.7429°W)
Time: 04:40:08
(UTC+01:00)

CAS-6 - Pass Details

Date: 31 March 2023
Orbit: 610 x 632 km, 97.9° (Epoch: 29 May)

Event Time Altitude Azimuth Distance (km) Brightness Sun altitude
Exits shadow 22:19:35 26° 50° (NE) 1,237 ? -23.1°
Drops below altitude 10° 22:22:41 10° 6° (N) 2,010 ? -23.5°
Sets 22:25:08 0° 355° (N) 2,926 ? -23.8°
